Location: Unspecified
(0.0000°N, 0.0000°E)
Time: 15:45:56
(UTC+00:00)

Hubble Space Telescope - Pass Details

Date: 15 January 2018
Orbit: 537 x 541 km, 28.5° (Epoch: 22 January)

Event Time Altitude Azimuth Distance (km) Brightness Sun altitude
Rises 20:25:38 0° 266° (W) 2,671 5.3 -31.5°
Reaches altitude 10° 20:28:21 10° 283° (WNW) 1,779 4.0 -32.1°
Enters shadow 20:29:02 13° 290° (WNW) 1,595 3.6 -32.3°
